Charlottesville, VA

12:59 AM EDT on September 25, 2017 (GMT -0400)
Charlottesville-Albemarle

Weather History for KCHO - April, 2014

Change the Weather History Date:

Tuesday, April 29, 2014

  Actual Average Record
Temperature  
Mean Temperature 49 °F 59 °F  
Max Temperature 51 °F 71 °F 91 °F (1957)
Min Temperature 47 °F 47 °F 32 °F (2001)
Degree Days  
Heating Degree Days 16 7  
Month to date heating degree days 284 301  
Since 1 July heating degree days 4520 4305  
Cooling Degree Days 0 1  
Month to date cooling degree days 9 21  
Year to date cooling degree days 9 23  
Moisture  
Dew Point 47 °F    
Average Humidity 95    
Maximum Humidity 100    
Minimum Humidity 89    
Precipitation  
Precipitation 1.02 in 0.10 in 1.02 in (2014)
Month to date precipitation 3.82 3.26  
Year to date precipitation 11.40 12.39  
Sea Level Pressure  
Sea Level Pressure 30.09 in    
Wind  
Wind Speed 9 mph (NE)    
Max Wind Speed 18 mph    
Max Gust Speed 24 mph    
Visibility 3 miles    
Events Rain    
T = Trace of Precipitation, MM = Missing Value Source: NWS Daily Summary

Daily Weather History Graph

Daily Weather History Graph

Search for Another Location

Airport or City:

Trip Planner

Search our weather history database for the weather conditions in past years. The results will help you decide how hot, cold, wet, or windy it might be!

Date:

Astronomy

Apr. 29, 2014 Rise Set
Actual Time 6:19 AM EDT 8:03 PM EDT
Civil Twilight 5:51 AM EDT 8:31 PM EDT
Nautical Twilight 5:17 AM EDT 9:05 PM EDT
Astronomical Twilight 4:41 AM EDT 9:42 PM EDT
Moon 6:36 AM EDT (4/29) 8:41 PM EDT (4/29)
Length of Visible Light 14h 39m
Length of Day
13h 43m
New Moon, 0% of the Moon is Illuminated
Apr 29
New Moon
May 6
First Quarter
May 14
Full
May 21
Last Quarter
May 28
New

Hourly Weather History & Observations

Time (EDT) Temp. Dew Point Humidity Pressure Visibility Wind Dir Wind Speed Gust Speed Precip Events Conditions
12:22 AM 50.0 °F 48.9 °F 96% 30.02 in 2.5 mi ENE 6.9 mph - N/A   Overcast
12:42 AM 50.0 °F 48.9 °F 96% 30.02 in 3.0 mi East 6.9 mph - N/A   Overcast
12:53 AM 50.0 °F 48.9 °F 96% 30.03 in 6.0 mi East 8.1 mph - N/A   Overcast
1:29 AM 48.9 °F 48.0 °F 97% 30.03 in 2.0 mi ENE 9.2 mph - N/A   Overcast
1:53 AM 48.9 °F 48.0 °F 97% 30.04 in 2.0 mi ENE 6.9 mph - N/A   Overcast
2:13 AM 48.9 °F 48.0 °F 97% 30.03 in 3.0 mi ENE 6.9 mph - N/A   Overcast
2:53 AM 48.0 °F 46.9 °F 96% 30.02 in 4.0 mi ENE 8.1 mph - 0.00 in   Overcast
3:39 AM 48.0 °F 46.9 °F 96% 30.04 in 3.0 mi ENE 6.9 mph - 0.00 in Rain Light Rain
3:53 AM 48.0 °F 46.9 °F 96% 30.05 in 3.0 mi NE 6.9 mph - 0.00 in   Overcast
4:53 AM 48.0 °F 46.9 °F 96% 30.05 in 5.0 mi NE 6.9 mph - 0.01 in   Overcast
5:51 AM 48.2 °F 46.4 °F 93% 30.05 in 4.0 mi ENE 8.1 mph - 0.00 in   Overcast
5:53 AM 48.0 °F 46.9 °F 96% 30.05 in 4.0 mi NE 5.8 mph - 0.00 in   Overcast
6:24 AM 48.0 °F 46.9 °F 96% 30.07 in 2.5 mi NE 8.1 mph - 0.00 in Rain Light Rain
6:35 AM 48.0 °F 46.9 °F 96% 30.08 in 3.0 mi ENE 8.1 mph - 0.01 in   Overcast
6:51 AM 48.2 °F 46.4 °F 93% 30.10 in 3.0 mi NE 5.8 mph - 0.01 in Rain Light Rain
6:53 AM 48.0 °F 46.9 °F 96% 30.10 in 4.0 mi NE 6.9 mph - 0.01 in Rain Light Rain
7:18 AM 48.0 °F 46.9 °F 96% 30.10 in 1.8 mi NE 6.9 mph - 0.03 in Rain Rain
7:32 AM 48.0 °F 46.9 °F 96% 30.11 in 3.0 mi NE 6.9 mph - 0.05 in Rain Light Rain
7:53 AM 48.0 °F 46.9 °F 96% 30.10 in 3.0 mi NNE 6.9 mph - 0.09 in Rain Rain
8:02 AM 48.0 °F 46.9 °F 96% 30.16 in 4.0 mi Variable 3.5 mph - 0.02 in Rain Rain
9:20 AM 48.0 °F 46.0 °F 93% 30.13 in 2.5 mi Variable 5.8 mph - 0.11 in Rain Rain
9:27 AM 48.0 °F 46.0 °F 93% 30.06 in 3.0 mi NE 18.4 mph 23.0 mph 0.13 in Rain Rain
9:53 AM 48.0 °F 46.0 °F 93% 30.11 in 2.0 mi NNE 8.1 mph - 0.16 in Rain Light Rain
10:00 AM 48.0 °F 46.0 °F 93% 30.12 in 9.0 mi NE 10.4 mph - 0.00 in Rain Light Rain
10:53 AM 48.0 °F 46.9 °F 96% 30.11 in 2.0 mi NE 6.9 mph - 0.04 in   Overcast
11:50 AM 48.2 °F 46.4 °F 93% 30.11 in 2.0 mi NNE 8.1 mph - 0.01 in Rain Light Rain
11:53 AM 48.0 °F 46.9 °F 96% 30.10 in 2.0 mi NE 10.4 mph - 0.01 in Rain Light Rain
12:00 PM 48.0 °F 46.9 °F 96% 30.09 in 1.5 mi NE 11.5 mph - 0.00 in Rain Light Rain
12:51 PM 48.2 °F 46.4 °F 93% 30.11 in 1.5 mi NNE 9.2 mph - 0.04 in Rain Rain
12:53 PM 48.0 °F 46.9 °F 96% 30.11 in 1.5 mi NE 8.1 mph - 0.04 in Rain Rain
1:14 PM 48.0 °F 46.9 °F 96% 30.09 in 1.8 mi NE 9.2 mph - 0.04 in Rain Light Rain
1:26 PM 48.0 °F 46.9 °F 96% 30.07 in 1.8 mi NNE 11.5 mph - 0.04 in Rain Light Rain
1:50 PM 48.2 °F 46.4 °F 93% 30.10 in 1.8 mi North 5.8 mph - 0.05 in Rain Light Rain
1:53 PM 48.9 °F 46.9 °F 93% 30.10 in 1.8 mi NNE 6.9 mph - 0.05 in Rain Light Rain
2:00 PM 48.9 °F 48.0 °F 97% 30.10 in 2.5 mi NNE 5.8 mph - 0.00 in   Overcast
2:53 PM 48.9 °F 48.0 °F 97% 30.10 in 1.8 mi NNE 8.1 mph - 0.03 in Rain Rain
3:09 PM 48.9 °F 48.0 °F 97% 30.11 in 1.8 mi North 4.6 mph - 0.05 in Rain Rain
3:25 PM 50.0 °F 48.0 °F 93% 30.10 in 1.8 mi NNE 8.1 mph - 0.08 in Rain Light Rain
3:53 PM 50.0 °F 48.9 °F 96% 30.10 in 2.5 mi NE 11.5 mph - 0.08 in   Overcast
6:08 PM 50.0 °F 48.9 °F 96% 30.10 in 1.5 mi NE 10.4 mph - 0.02 in Rain Light Rain
6:53 PM 48.9 °F 48.0 °F 97% 30.10 in 1.5 mi NNE 9.2 mph - 0.17 in Rain Rain
7:53 PM 48.9 °F 48.0 °F 97% 30.12 in 2.0 mi NNE 8.1 mph - 0.10 in Rain Light Rain
8:00 PM 48.9 °F 48.0 °F 97% 30.12 in 7.0 mi NNE 11.5 mph - 0.00 in Rain Light Rain
8:53 PM 48.9 °F 46.9 °F 93% 30.12 in 5.0 mi NNE 11.5 mph - 0.00 in   Overcast
9:25 PM 50.0 °F 46.9 °F 89% 30.13 in 10.0 mi NE 10.4 mph - 0.00 in Rain Light Rain
9:53 PM 48.9 °F 46.9 °F 93% 30.13 in 6.0 mi NE 9.2 mph - 0.00 in   Overcast
10:53 PM 48.9 °F 48.0 °F 97% 30.13 in 3.0 mi NNE 11.5 mph - 0.05 in Rain Light Rain
11:25 PM 48.9 °F 48.0 °F 97% 30.13 in 2.5 mi NNE 8.1 mph - 0.01 in Rain Light Rain
11:53 PM 48.9 °F 48.0 °F 97% 30.13 in 6.0 mi NNE 8.1 mph - 0.06 in Rain Light Rain